GW7528 Weather Reports


time (UTC)temp
F
wind
direction
speed
knots
gust
knots
rain 1hr
in
rain 24hr
in
rain mn
in
humidity
%
barometer
mb
20260906052359 76 330 0.0 1.7 0.00 0.00 0.00 94 1011.9
20260906051859 76 73 0.0 0.9 0.00 0.00 0.00 94 1012.0
20260906051359 76 325 0.0 1.7 0.00 0.00 0.00 94 1012.1
20260906050859 76 330 0.9 1.7 0.00 0.00 0.00 94 1012.2
20260906050400 76 325 0.9 0.9 0.00 0.00 0.00 95 1012.3
20260906045859 76 209 0.0 0.9 0.00 0.00 0.00 95 1012.2
20260906045359 76 339 0.0 1.7 0.00 0.00 0.00 94 1012.2
20260906044859 77 105 0.9 1.7 0.00 0.00 0.00 93 1012.2
20260906044359 77 91 0.0 1.7 0.00 0.00 0.00 93 1012.2
20260906043900 77 70 0.9 1.7 0.00 0.00 0.00 92 1012.2
20260906043359 78 317 0.0 0.9 0.00 0.00 0.00 91 1012.2
20260906042859 78 294 0.0 0.9 0.00 0.00 0.00 91 1012.2
20260906042359 78 249 0.0 0.9 0.00 0.00 0.00 92 1012.1
20260906041900 78 360 0.0 0.0 0.00 0.00 0.00 92 1012.1
20260906041401 78 26 0.0 0.9 0.00 0.00 0.00 91 1012.1
20260906040859 78 360 0.0 0.0 0.00 0.00 0.00 90 1012.1
20260906040359 78 360 0.0 0.0 0.00 0.00 0.00 90 1012.1
20260906035858 78 42 0.0 0.0 0.00 0.00 0.00 89 1012.0
20260906035359 78 360 0.0 0.0 0.00 0.00 0.00 87 1012.1
20260906034859 78 310 0.0 0.9 0.00 0.00 0.00 87 1012.1
20260906034400 78 360 0.0 0.0 0.00 0.00 0.00 89 1012.1
20260906033859 78 35 0.0 0.9 0.00 0.00 0.00 87 1012.1
20260906033359 79 89 0.0 0.9 0.00 0.00 0.00 88 1012.0
20260906032859 78 360 0.0 0.0 0.00 0.00 0.00 88 1012.0
20260906032359 78 360 0.0 0.0 0.00 0.00 0.00 87 1012.1
20260906031859 79 52 0.0 0.0 0.00 0.00 0.00 85 1012.0
20260906031359 79 360 0.0 0.0 0.00 0.00 0.00 85 1011.9
20260906030859 79 360 0.0 0.0 0.00 0.00 0.00 85 1011.9
20260906030359 79 360 0.0 0.0 0.00 0.00 0.00 86 1011.9
20260906025859 80 360 0.0 0.0 0.00 0.00 0.00 85 1011.8
20260906025359 80 60 0.0 0.9 0.00 0.00 0.00 84 1011.8
20260906024859 80 360 0.0 0.0 0.00 0.00 0.00 83 1011.8
20260906024359 80 276 0.0 0.9 0.00 0.00 0.00 84 1011.7
20260906023859 80 211 0.0 0.9 0.00 0.00 0.00 83 1011.6
20260906023400 80 266 1.7 2.6 0.00 0.00 0.00 81 1011.5
20260906022900 80 239 1.7 1.7 0.00 0.00 0.00 80 1011.4
20260906022359 80 204 0.0 0.0 0.00 0.00 0.00 80 1011.3
20260906021859 80 52 0.0 0.9 0.00 0.00 0.00 79 1011.3
20260906021400 80 53 0.0 1.7 0.00 0.00 0.00 80 1011.3
20260906020859 81 49 0.9 1.7 0.00 0.00 0.00 80 1011.3
20260906020406 81 26 0.9 1.7 0.00 0.00 0.00 79 1011.3
20260906015900 81 319 0.9 2.6 0.00 0.00 0.00 78 1011.3
20260906015359 82 338 0.0 0.9 0.00 0.00 0.00 78 1011.4
20260906014859 82 314 1.7 1.7 0.00 0.00 0.00 78 1011.3
20260906014359 82 333 0.0 0.9 0.00 0.00 0.00 77 1011.2
20260906013859 82 26 0.9 0.9 0.00 0.00 0.00 77 1011.2
20260906013359 82 333 0.0 0.9 0.00 0.00 0.00 77 1011.1
20260906012859 83 330 0.0 1.7 0.00 0.00 0.00 77 1011.1
20260906012402 83 311 0.9 1.7 0.00 0.00 0.00 75 1011.0
20260906011900 83 312 0.9 1.7 0.00 0.00 0.00 74 1011.0
20260906011359 84 334 0.0 1.7 0.00 0.00 0.00 73 1010.9
20260906010859 84 323 0.9 1.7 0.00 0.00 0.00 72 1010.8
20260906010359 84 330 0.9 1.7 0.00 0.00 0.00 73 1010.8
20260906005900 85 309 1.7 1.7 0.00 0.00 0.00 72 1010.7
20260906005359 85 25 0.0 0.9 0.00 0.00 0.00 70 1010.7
20260906004859 86 38 0.9 1.7 0.00 0.00 0.00 71 1010.6
20260906004359 86 318 0.9 1.7 0.00 0.00 0.00 69 1010.5
20260906003859 87 318 0.9 1.7 0.00 0.00 0.00 68 1010.5
20260906003400 87 310 2.6 3.5 0.00 0.00 0.00 65 1010.5
20260906002859 88 318 0.9 1.7 0.00 0.00 0.00 65 1010.5
20260906002359 89 315 1.7 2.6 0.00 0.00 0.00 63 1010.6
20260906001859 90 314 1.7 2.6 0.00 0.00 0.00 62 1010.6
20260906001359 91 310 1.7 2.6 0.00 0.00 0.00 60 1010.6
20260906000859 92 305 3.5 3.5 0.00 0.00 0.00 58 1010.6
20260906000359 92 307 2.6 3.5 0.00 0.00 0.00 56 1010.6
20260905235859 94 43 0.9 1.7 0.00 0.00 0.00 55 1010.7
20260905235359 95 82 0.9 1.7 0.00 0.00 0.00 53 1010.8
20260905234859 96 120 0.9 1.7 0.00 0.00 0.00 52 1010.7
20260905234359 96 113 0.9 1.7 0.00 0.00 0.00 49 1010.7
20260905233859 96 89 0.9 1.7 0.00 0.00 0.00 49 1010.8
20260905233359 97 51 0.9 1.7 0.00 0.00 0.00 49 1010.8
20260905232859 97 98 1.7 1.7 0.00 0.00 0.00 46 1010.8
20260905232400 98 33 0.9 1.7 0.00 0.00 0.00 46 1010.7
20260905231859 98 310 2.6 4.3 0.00 0.00 0.00 45 1010.6
20260905231359 98 81 0.9 1.7 0.00 0.00 0.00 46 1010.6
20260905230859 98 11 0.9 1.7 0.00 0.00 0.00 47 1010.6
20260905230359 98 302 2.6 3.5 0.00 0.00 0.00 44 1010.5
20260905225900 98 300 3.5 5.2 0.00 0.00 0.00 45 1010.6
20260905225359 98 72 1.7 2.6 0.00 0.00 0.00 45 1010.6
20260905224859 98 47 1.7 2.6 0.00 0.00 0.00 45 1010.6
20260905224359 98 48 2.6 3.5 0.00 0.00 0.00 46 1010.6
20260905223900 98 68 3.5 4.3 0.00 0.00 0.00 46 1010.7
20260905223400 98 12 1.7 2.6 0.00 0.00 0.00 45 1010.7
20260905222859 99 74 3.5 4.3 0.00 0.00 0.00 45 1010.7
20260905222359 99 300 5.2 6.1 0.00 0.00 0.00 44 1010.7
20260905221903 98 316 2.6 4.3 0.00 0.00 0.00 44 1010.8
20260905221359 98 48 3.5 4.3 0.00 0.00 0.00 45 1010.8
20260905220859 98 101 2.6 4.3 0.00 0.00 0.00 44 1010.8
20260905220359 98 84 3.5 4.3 0.00 0.00 0.00 45 1010.8
20260905215859 98 12 2.6 4.3 0.00 0.00 0.00 45 1010.8
20260905215359 98 69 4.3 5.2 0.00 0.00 0.00 44 1010.8
20260905214859 98 62 3.5 6.1 0.00 0.00 0.00 44 1010.8
20260905214359 97 60 2.6 3.5 0.00 0.00 0.00 46 1010.8
20260905213900 96 77 2.6 3.5 0.00 0.00 0.00 47 1010.8
20260905213359 96 50 2.6 3.5 0.00 0.00 0.00 46 1010.8
20260905212859 97 64 3.5 3.5 0.00 0.00 0.00 47 1010.8
20260905212359 97 51 3.5 4.3 0.00 0.00 0.00 47 1010.9
20260905211859 98 359 3.5 3.5 0.00 0.00 0.00 46 1010.8
20260905211359 99 11 5.2 7.8 0.00 0.00 0.00 45 1010.8
20260905210901 100 27 5.2 7.0 0.00 0.00 0.00 44 1010.8
20260905210359 100 338 2.6 5.2 0.00 0.00 0.00 42 1010.9
20260905205859 99 151 1.7 2.6 0.00 0.00 0.00 42 1011.0
20260905205359 99 70 4.3 6.1 0.00 0.00 0.00 43 1011.1
20260905204859 99 78 1.7 2.6 0.00 0.00 0.00 43 1011.1
20260905204400 99 76 4.3 7.0 0.00 0.00 0.00 43 1011.2
20260905203900 99 60 3.5 5.2 0.00 0.00 0.00 43 1011.3
20260905203359 98 251 1.7 3.5 0.00 0.00 0.00 44 1011.3
20260905202859 98 75 5.2 7.0 0.00 0.00 0.00 46 1011.3
20260905202359 97 311 3.5 4.3 0.00 0.00 0.00 47 1011.4
20260905201900 97 114 0.9 1.7 0.00 0.00 0.00 48 1011.5
20260905201359 98 349 3.5 5.2 0.00 0.00 0.00 47 1011.6
20260905200859 99 29 2.6 5.2 0.00 0.00 0.00 47 1011.6
20260905200359 100 318 5.2 7.8 0.00 0.00 0.00 46 1011.6
20260905195859 99 53 2.6 5.2 0.00 0.00 0.00 44 1011.7
20260905195359 98 99 3.5 4.3 0.00 0.00 0.00 44 1011.8
20260905194901 98 140 5.2 7.8 0.00 0.00 0.00 44 1011.8
20260905194359 98 115 3.5 6.1 0.00 0.00 0.00 45 1012.0
20260905193859 98 78 4.3 7.8 0.00 0.00 0.00 45 1012.1
20260905193400 98 58 2.6 5.2 0.00 0.00 0.00 46 1012.2
20260905192903 98 316 4.3 8.7 0.00 0.00 0.00 46 1012.3
20260905192359 98 27 0.9 1.7 0.00 0.00 0.00 46 1012.5
20260905191859 98 30 6.1 7.8 0.00 0.00 0.00 46 1012.5
20260905191400 98 69 6.1 7.8 0.00 0.00 0.00 46 1012.7
20260905190859 98 47 3.5 6.1 0.00 0.00 0.00 46 1012.7
20260905190359 97 344 3.5 5.2 0.00 0.00 0.00 47 1012.8
20260905185900 97 347 2.6 4.3 0.00 0.00 0.00 49 1013.0
20260905185359 97 65 4.3 7.0 0.00 0.00 0.00 49 1013.0
20260905184859 98 49 6.1 7.8 0.00 0.00 0.00 47 1013.0
20260905184359 97 70 3.5 5.2 0.00 0.00 0.00 49 1013.0
20260905183901 98 83 6.1 7.8 0.00 0.00 0.00 48 1013.0
20260905183400 97 111 6.1 7.8 0.00 0.00 0.00 48 1013.1
20260905182859 97 82 5.2 7.8 0.00 0.00 0.00 49 1013.2
20260905182359 97 53 6.1 8.7 0.00 0.00 0.00 49 1013.2
20260905181859 96 24 2.6 4.3 0.00 0.00 0.00 49 1013.2
20260905181359 97 78 4.3 6.1 0.00 0.00 0.00 49 1013.2
20260905180900 97 84 5.2 6.1 0.00 0.00 0.00 49 1013.2
20260905180359 96 6 3.5 5.2 0.00 0.00 0.00 50 1013.4
20260905175901 96 62 4.3 5.2 0.00 0.00 0.00 51 1013.4
20260905175359 96 76 6.1 7.8 0.00 0.00 0.00 50 1013.4
20260905174859 95 75 4.3 7.0 0.00 0.00 0.00 51 1013.5
20260905174359 96 300 3.5 5.2 0.00 0.00 0.00 50 1013.4
20260905173859 95 360 1.7 2.6 0.00 0.00 0.00 51 1013.5
20260905173359 95 360 2.6 3.5 0.00 0.00 0.00 50 1013.5
20260905172900 95 24 2.6 5.2 0.00 0.00 0.00 52 1013.5
20260905172359 95 88 3.5 5.2 0.00 0.00 0.00 51 1013.5
20260905171900 95 95 5.2 7.0 0.00 0.00 0.00 52 1013.5
20260905171400 95 65 6.1 7.8 0.00 0.00 0.00 51 1013.6
20260905170859 95 111 2.6 3.5 0.00 0.00 0.00 50 1013.7
20260905170359 95 66 4.3 6.1 0.00 0.00 0.00 51 1013.8
20260905165859 96 121 3.5 5.2 0.00 0.00 0.00 50 1013.8
20260905165359 95 159 1.7 2.6 0.00 0.00 0.00 50 1013.9
20260905164859 95 294 3.5 5.2 0.00 0.00 0.00 51 1014.0
20260905164359 95 112 1.7 1.7 0.00 0.00 0.00 53 1014.1
20260905163900 95 312 1.7 4.3 0.00 0.00 0.00 51 1014.3
20260905163359 94 291 1.7 3.5 0.00 0.00 0.00 54 1014.4
20260905162859 94 44 1.7 4.3 0.00 0.00 0.00 54 1014.4
20260905162359 93 334 1.7 3.5 0.00 0.00 0.00 56 1014.5
20260905161859 93 55 2.6 4.3 0.00 0.00 0.00 57 1014.6
20260905161359 92 299 5.2 7.0 0.00 0.00 0.00 57 1014.6
20260905160859 92 105 1.7 2.6 0.00 0.00 0.00 58 1014.6
20260905160359 92 325 2.6 4.3 0.00 0.00 0.00 58 1014.7
20260905155900 91 239 1.7 3.5 0.00 0.00 0.00 58 1014.7
20260905155359 91 83 4.3 5.2 0.00 0.00 0.00 59 1014.7
20260905154901 91 87 2.6 3.5 0.00 0.00 0.00 59 1014.8
20260905154400 90 47 1.7 3.5 0.00 0.00 0.00 61 1014.8
20260905153859 90 49 3.5 4.3 0.00 0.00 0.00 61 1014.8
20260905153359 90 18 0.9 1.7 0.00 0.00 0.00 63 1014.8
20260905152859 89 53 2.6 3.5 0.00 0.00 0.00 65 1014.9
20260905152359 89 73 4.3 5.2 0.00 0.00 0.00 66 1014.9
20260905151859 88 59 3.5 5.2 0.00 0.00 0.00 68 1014.9
20260905151401 88 69 4.3 6.1 0.00 0.00 0.00 67 1014.9
20260905150859 88 51 1.7 2.6 0.00 0.00 0.00 68 1014.8
20260905150400 88 82 3.5 4.3 0.00 0.00 0.00 68 1014.8
20260905145859 87 5 1.7 3.5 0.00 0.00 0.00 68 1014.8
20260905145359 87 42 3.5 5.2 0.00 0.00 0.00 70 1014.9
20260905144859 87 56 2.6 3.5 0.00 0.00 0.00 69 1014.9
20260905144359 86 353 1.7 1.7 0.00 0.00 0.00 72 1014.9
20260905143859 86 69 2.6 3.5 0.00 0.00 0.00 72 1014.9
20260905143359 86 68 3.5 4.3 0.00 0.00 0.00 73 1015.0
20260905142859 86 107 1.7 3.5 0.00 0.00 0.00 73 1015.0
20260905142359 85 98 1.7 2.6 0.00 0.00 0.00 75 1015.1
20260905141859 84 94 0.9 1.7 0.00 0.00 0.00 76 1015.1
20260905141400 83 343 1.7 1.7 0.00 0.00 0.00 78 1015.1
20260905140900 82 138 0.9 1.7 0.00 0.00 0.00 80 1015.1
20260905140401 82 46 1.7 1.7 0.00 0.00 0.00 82 1015.1
20260905135900 81 51 0.9 1.7 0.00 0.00 0.00 84 1015.1
20260905135359 80 36 0.9 1.7 0.00 0.00 0.00 85 1015.1
20260905134859 80 110 0.9 1.7 0.00 0.00 0.00 86 1015.1
20260905134400 79 108 0.9 1.7 0.00 0.00 0.00 88 1015.2
20260905133859 79 72 0.9 1.7 0.00 0.00 0.00 90 1015.2
20260905133400 78 62 1.7 2.6 0.00 0.00 0.00 91 1015.2
20260905132859 78 68 1.7 2.6 0.00 0.00 0.00 91 1015.2
20260905132400 77 72 1.7 2.6 0.00 0.00 0.00 93 1015.1
20260905131900 77 64 1.7 2.6 0.00 0.00 0.00 94 1015.1
20260905131359 77 60 2.6 3.5 0.00 0.00 0.00 95 1015.1
20260905130859 76 97 1.7 1.7 0.00 0.00 0.00 96 1015.0
20260905130359 76 120 0.9 1.7 0.00 0.00 0.00 98 1015.0
20260905125859 76 145 2.6 3.5 0.00 0.00 0.00 98 1014.9
20260905125359 75 148 1.7 3.5 0.00 0.00 0.00 99 1014.9
20260905124900 75 161 2.6 3.5 0.00 0.00 0.00 99 1015.0
20260905124400 74 166 1.7 2.6 0.00 0.00 0.00 99 1015.0
20260905123901 74 174 1.7 2.6 0.00 0.00 0.00 100 1015.0
20260905123359 74 127 0.9 1.7 0.00 0.00 0.00 100 1015.0
20260905122859 73 155 2.6 3.5 0.00 0.00 0.00 99 1015.1
20260905122359 73 354 0.9 2.6 0.00 0.00 0.00 99 1015.0
20260905121859 73 357 0.9 1.7 0.00 0.00 0.00 99 1014.9
20260905121359 73 332 0.9 2.6 0.00 0.00 0.00 99 1015.0
20260905120859 73 122 0.0 1.7 0.00 0.00 0.00 99 1015.0
20260905120359 73 109 1.7 1.7 0.00 0.00 0.00 99 1014.9
20260905115859 73 148 3.5 3.5 0.00 0.00 0.00 100 1014.9
20260905115400 73 106 0.9 2.6 0.00 0.00 0.00 99 1014.7
20260905114859 73 129 0.9 2.6 0.00 0.00 0.00 99 1014.7
20260905114359 73 147 2.6 3.5 0.00 0.00 0.00 99 1014.7
20260905113859 73 100 1.7 1.7 0.00 0.00 0.00 99 1014.7
20260905113359 73 310 0.9 1.7 0.00 0.00 0.00 99 1014.6
20260905112859 73 113 0.9 2.6 0.00 0.00 0.00 99 1014.6
20260905112359 73 72 1.7 2.6 0.00 0.00 0.00 99 1014.6
20260905111859 73 330 0.9 1.7 0.00 0.00 0.00 99 1014.5
20260905111359 73 211 1.7 2.6 0.00 0.00 0.00 99 1014.4
20260905110859 73 290 1.7 2.6 0.00 0.00 0.00 99 1014.1
20260905110359 73 200 2.6 2.6 0.00 0.00 0.00 99 1014.3
20260905105859 73 182 1.7 1.7 0.00 0.00 0.00 99 1014.3
20260905105359 73 315 0.9 1.7 0.00 0.00 0.00 99 1014.0
20260905104859 73 122 0.9 2.6 0.00 0.00 0.00 99 1013.9
20260905104359 74 131 0.0 0.0 0.00 0.00 0.00 99 1013.8
20260905103859 74 128 0.9 2.6 0.00 0.00 0.00 99 1013.8
20260905103400 74 192 2.6 2.6 0.00 0.00 0.00 99 1013.7
20260905102859 74 176 2.6 2.6 0.00 0.00 0.00 99 1013.6
20260905102359 74 323 0.0 1.7 0.00 0.00 0.00 99 1013.7
20260905101859 74 312 0.9 2.6 0.00 0.00 0.00 99 1013.7
20260905101359 74 316 0.9 1.7 0.00 0.00 0.00 99 1013.6
20260905100859 74 348 0.9 1.7 0.00 0.00 0.00 98 1013.6
20260905100400 74 19 0.9 1.7 0.00 0.00 0.00 98 1013.6
20260905095859 74 309 0.0 1.7 0.00 0.00 0.00 99 1013.6
20260905095359 74 349 2.6 3.5 0.00 0.00 0.00 99 1013.5
20260905094859 74 337 0.9 1.7 0.00 0.00 0.00 98 1013.5
20260905094359 74 275 0.9 1.7 0.00 0.00 0.00 99 1013.6
20260905093859 73 312 0.9 1.7 0.00 0.00 0.00 99 1013.6
20260905093400 73 322 1.7 1.7 0.00 0.00 0.00 98 1013.5
20260905092859 74 8 0.9 1.7 0.00 0.00 0.00 98 1013.5
20260905092359 74 307 0.9 2.6 0.00 0.00 0.00 99 1013.4
20260905091900 73 324 1.7 1.7 0.00 0.00 0.00 98 1013.3
20260905091359 73 346 0.0 1.7 0.00 0.00 0.00 98 1013.3
20260905090900 73 316 0.9 1.7 0.00 0.00 0.00 98 1013.3
20260905090403 73 315 1.7 2.6 0.00 0.00 0.00 98 1013.3
20260905085859 73 325 0.9 3.5 0.00 0.00 0.00 98 1013.3
20260905085359 74 349 0.9 2.6 0.00 0.00 0.00 98 1013.4
20260905084900 74 320 0.0 1.7 0.00 0.00 0.00 98 1013.3
20260905084359 74 95 0.9 1.7 0.00 0.00 0.00 98 1013.3
20260905083900 74 96 1.7 2.6 0.00 0.00 0.00 98 1013.3
20260905083400 74 85 1.7 2.6 0.00 0.00 0.00 98 1013.3
20260905082859 74 324 0.9 2.6 0.00 0.00 0.00 98 1013.3
20260905082359 74 356 0.9 1.7 0.00 0.00 0.00 97 1013.3
20260905081859 74 89 0.9 1.7 0.00 0.00 0.00 97 1013.3
20260905081359 74 41 0.9 2.6 0.00 0.00 0.00 97 1013.3
20260905080859 74 45 0.9 3.5 0.00 0.00 0.00 97 1013.3
20260905080359 74 290 1.7 2.6 0.00 0.00 0.00 97 1013.3
20260905075859 74 335 0.9 3.5 0.00 0.00 0.00 97 1013.3
20260905075359 74 31 1.7 1.7 0.00 0.00 0.00 97 1013.3
20260905074859 74 323 0.9 2.6 0.00 0.00 0.00 97 1013.2
20260905074400 74 105 0.9 1.7 0.00 0.00 0.00 96 1013.2
20260905073859 74 101 0.9 2.6 0.00 0.00 0.00 96 1013.2
20260905073359 74 343 1.7 2.6 0.00 0.00 0.00 96 1013.2
20260905072859 74 306 0.9 1.7 0.00 0.00 0.00 97 1013.3
20260905072359 74 319 1.7 2.6 0.00 0.00 0.00 96 1013.3
20260905071859 75 343 0.9 1.7 0.00 0.00 0.00 96 1013.3
20260905071359 75 295 0.9 3.5 0.00 0.00 0.00 96 1013.3
20260905070901 75 249 0.9 1.7 0.00 0.00 0.00 96 1013.3
20260905070359 75 78 0.0 0.9 0.00 0.00 0.00 96 1013.4
20260905065859 75 74 0.9 2.6 0.00 0.00 0.00 95 1013.5
20260905065359 75 303 0.9 1.7 0.00 0.00 0.00 95 1013.5
20260905064859 75 295 0.9 1.7 0.00 0.00 0.00 96 1013.5
20260905064359 75 312 1.7 1.7 0.00 0.00 0.00 95 1013.5
20260905063859 75 352 0.0 1.7 0.00 0.00 0.00 96 1013.6
20260905063359 75 17 0.9 1.7 0.00 0.00 0.00 96 1013.7
20260905062859 75 317 0.0 1.7 0.00 0.00 0.00 95 1013.7
20260905062359 75 349 0.9 1.7 0.00 0.00 0.00 95 1013.7
20260905061900 75 248 0.9 1.7 0.00 0.00 0.00 95 1013.8
20260905061400 76 20 0.0 1.7 0.00 0.00 0.00 95 1013.8
20260905060859 76 88 1.7 2.6 0.00 0.00 0.00 94 1013.8
20260905060359 76 62 0.9 1.7 0.00 0.00 0.00 93 1013.8
20260905055859 76 360 0.0 0.0 0.00 0.00 0.00 92 1013.8
20260905055400 76 301 0.9 1.7 0.00 0.00 0.00 93 1013.9
20260905054859 76 360 0.9 1.7 0.00 0.00 0.00 94 1014.0
20260905054359 76 95 0.0 1.7 0.00 0.00 0.00 94 1014.0
20260905053859 76 86 1.7 1.7 0.00 0.00 0.00 94 1014.0
20260905053359 76 95 1.7 2.6 0.00 0.00 0.00 94 1014.0
20260905052859 76 77 1.7 2.6 0.00 0.00 0.00 93 1014.0